Location: Gad�tanya
(48.0500°N, 20.8500°E)
Time: 11:05:07
(UTC+00:00)

IRIDIUM 103 - Pass Details

Date: 05 July 2020
Orbit: 776 x 779 km, 86.4° (Epoch: 14 August)

Event Time Altitude Azimuth Distance (km) Brightness Sun altitude
Exits shadow 22:01:06 35° 160° (SSE) 1,245 4.8 -18.7°
Maximum altitude 22:03:16 66° 89° (E) 852 4.4 -18.8°
Drops below altitude 10° 22:08:27 10° 9° (N) 2,344 7.9 -18.9°
Sets 22:10:49 0° 7° (N) 3,277 9.0 -18.9°
